Weather Roundup
Issued by NWS Chicago, IL

Home | Current Version | Previous Version | Graphics & Text | Print | Product List | Glossary On
Versions: 1 2 3 4 5 6 7 8 9 10 11 12 13 14 15 16 17 18 19 20 21 22 23 24 25 26 27 28 29 30 31 32 33 34 35 36 37 38 39 40 41 42 43 44 45 46 47 48 49 50
201
NZUS59 KLOT 300808
HRRLOT

CHICAGO AREA WEATHER ROUNDUP
NATIONAL WEATHER SERVICE CHICAGO/ROMEOVILLE IL
300 AM CDT SUN APR 30 2017

NOTE: "FAIR" INDICATES FEW OR NO CLOUDS BELOW 12,000 FEET WITH NO
SIGNIFICANT WEATHER AND/OR OBSTRUCTIONS TO VISIBILITY.

* THESE STATIONS ARE NOT UNDER NWS QUALITY CONTROL. THEY ALSO MAY NOT
  REPORT WEATHER SUCH AS PRECIPITATION OR FOG.

ILZ005-006-012>014-019>023-300900-
NORTHEAST ILLINOIS

CITY           SKY/WX    TMP DP  RH WIND       PRES   REMARKS
OHARE          DRIZZLE   43  41  93 NE16      29.94F
MIDWAY         LGT RAIN  44  44 100 NE14G23   29.93F FOG
AURORA         CLOUDY    44  42  93 NE16G26   29.91F
LANSING*       CLOUDY    46  46 100 NE9       29.91F FOG
JOLIET*        CLOUDY    46  46  98 NE9       29.90F FOG
WAUKEGAN       CLOUDY    41  41 100 NE13G24   29.97F FOG
DUPAGE AIRPORT CLOUDY    43  43 100 NE12      29.93F FOG
WHEELING       CLOUDY    42  42 100 NE13G24   29.96F FOG
KANKAKEE*      CLOUDY    48  47  97 NE9       29.88S FOG
MORRIS*        CLOUDY    46  44  95 NE9       29.88F FOG
LEWIS AIRPORT* CLOUDY    44  44 100 NE16G23   29.90F FOG
NORTHERLY ISL    N/A     43  42  97 N18         N/A
$$

WIZ051-052-058>065-066-070>072-300900-
SOUTHEAST WISCONSIN

CITY           SKY/WX    TMP DP  RH WIND       PRES   REMARKS
MILWAUKEE      CLOUDY    41  40  96 NE18G25   30.03F
KENOSHA*       CLOUDY    41  39  93 NE21G28   29.99F FOG
RACINE*        CLOUDY    41  39  93 NE18G26   30.02F FOG
WAUKESHA       CLOUDY    37  36  93 NE15G24   30.02F FOG
WEST BEND      MIX PCPN  37  37 100 E16G25    30.05F
$$

INZ001>003-010>013-019-020-300900-
NORTHWEST INDIANA

CITY           SKY/WX    TMP DP  RH WIND       PRES   REMARKS
GARY*          CLOUDY    48  46  92 NE8       29.92F FOG
MICHIGAN CITY* NOT AVBL
RENSSELAER*    NOT AVBL
VALPARAISO     LGT RAIN  46  44  93 E16       29.90F FOG
$$

LMZ740>746-300900-
SOUTHERN LAKE MICHIGAN

STATION/POSITION TIME  SKY/WX   TEMP WIND        PRES    VSBY
                                AIR  DIR/SP/G
                 (UTC)          (F)  (DEG/KT/KT) (MB)    (MI)
HARRISON CRIB    0730            44   30/ 18/ 21   N/A
BURNHAM HARBOR   0800            43   20/ 14/ 19   N/A
CALUMET HARBOR   0748            44   20/ 11/ 14 1012.9F
BURNS HARBOR     0800            47   CALM  / 13 1013.5
MICHIGAN CITY    0740            45  100/ 12/ 14   N/A
$$

ABBREVIATIONS USED IN REMARKS
   TC - TEMPERATURE IN CELSIUS
  WCI - WIND CHILL INDEX
   HX - HEAT INDEX
  VSB - VISIBILITY
$$




USA.gov is the U.S. government's official web portal to all federal, state and local government web resources and services.